Find Starlink 5071

NORAD ID: 55402 Int'l Des: 2023-014 Owner: SPXS Country: US Constellation: starlink operational
LEOCIRCULAR

リアルタイム位置

3D地球を読み込み中...

Starlink 5071について

説明を読み込み中...

次回通過

Passes for default location (London). Set your location on the main map for personalized predictions.

高度履歴

Loading altitude history...

軌道要素

1 55402U 23014M 26132.77793494 -.00000276 00000-0 -15367-4 0 9993
2 55402 69.9992 262.9266 0002925 264.1688 95.9137 14.98329255181651
Epoch: May 12, 2026 • Age: 12 hours

現在のステータス

高度 583.4 km
速度 7.57 km/s
衛星直下点 -35.30°S, 122.63°E
打ち上げ日 Jan 31, 2023
運用期間 3.2 years
タイプ internet

技術仕様

分類 Payload
質量 305.00 kg
乾燥質量 290.00 kg
総質量 305.00 kg
長さ 0.20 m
直径 2.80 m
スパン 9.00 m
形状 Box + pan
製造者 SPXS
バスタイプ Starlink
フェーズステータス In Orbit
所有者/国 SPXS/US

Most Searched